Regional Weather Roundup
Issued by NWS Binghamton, NY

Home | Current Version | Previous Version | Text Only | Print | Product List | Glossary On
Versions: 1 2 3 4 5 6 7 8 9 10 11 12 13 14 15 16 17 18 19 20 21 22 23 24 25 26 27 28 29 30 31 32 33 34 35 36 37 38 39 40 41 42 43 44 45 46 47 48 49 50
000
ASUS41 KBGM 081710
RWRBGM

REGIONAL WEATHER ROUNDUP
NATIONAL WEATHER SERVICE BINGHAMTON NY
1200 PM EST THU DEC 08 2016

Note: "fair" indicates few or no clouds below 12,000 feet with no
significant weather and/or obstructions to visibility.

* = Station(s) that does not report precipitation, such as rain,
snow, etc, also no thunder or fog.

NYZ009-015>018-022>025-036-037-044>046-055>057-062-081800
...Central New York...

CITY           SKY/WX    TMP DP  RH WIND       PRES   REMARKS
Binghamton     CLOUDY    31  21  66 W15       29.84F WCI  20
Cortland       LGT SNOW  32  30  93 W6        29.87F WCI  26
Dansville      CLOUDY    36  22  56 VRB5      29.91F WCI  32
Elmira         CLOUDY    36  20  52 W15G22    29.89F WCI  27
Seneca Falls   CLOUDY    37  27  65 W13       29.90F WCI  29
Ithaca         FLURRIES  33  24  69 W8        29.88F WCI  26
Hamilton       CLOUDY    34  21  60 W8        29.85F WCI  27
Monticello     MOSUNNY   34  27  75 SW12G17   29.86F WCI  25
Norwich        CLOUDY    34  23  64 W9        29.87S WCI  26
Oneonta        PTSUNNY   32  21  64 W10G18    29.81  WCI  24
Penn Yan       FLURRIES  32  26  78 W5        29.88F WCI  27
Rome           CLOUDY    35  29  78 W12       29.87F WCI  27
Sidney         CLOUDY    36  23  60 W16G22    29.86F WCI  26
Syracuse       CLOUDY    35  25  66 W15G22    29.88F WCI  25
$$

PAZ038>040-043-044-047-048-072-081800
...Northeast Pennsylvania...

CITY           SKY/WX    TMP DP  RH WIND       PRES   REMARKS
Hazleton       CLOUDY    37  21  52 W13G20    29.92F WCI  29
Scranton       MOSUNNY   38  22  52 SW13      29.90F WCI  30
$$
&&
KEY
WCI = Wind Chill Index
VSB = Visibility
HX  = Heat Index
$$



USA.gov is the U.S. government's official web portal to all federal, state and local government web resources and services.